Wind_Speed
18 18 18 16 15 13 9 5 8 11 9 12 15 13 11 16 18 18 17 14 16 18 20 24 24 24 25 22 17 19 24 25 25 25 24 24 23 24 24 25 26 28 32 30 30 33 28 24 20 16 19 16 12 14 14 15 13 11 9 7 6 5 5 6 6 7 8 9 9 9 7 7 6 6 8 10 10 11 11 11 11 10 10 10 10 10
20 16 17 19 18 14 11 9 13 11 8 9 6 6 10 15 15 17 17 15 19 19 20 25 25 23 23 20 18 22 24 23 24 23 22 22 22 23 23 25 27 29 32 25 25 35 32 27 20 16 22 19 12 13 13 14 14 13 11 9 7 5 5 5 6 7 8 9 10 10 10 10 9 10 12 13 13 13 13 12 12 12 12 11 11 10
22 17 20 21 14 9 11 12 11 5 4 2 4 1 10 15 14 16 17 17 19 19 20 23 23 22 21 20 20 22 23 22 23 22 20 20 20 22 23 25 27 28 32 25 24 35 35 30 22 15 21 20 14 14 13 13 12 12 12 10 8 6 6 6 6 7 7 8 9 11 12 13 14 16 17 16 15 15 15 14 12 12 12 11 10 11
23 20 24 23 11 8 11 11 8 7 7 10 10 2 11 16 14 15 18 19 19 20 20 20 20 21 22 23 21 20 22 22 22 21 18 19 21 23 23 25 27 27 31 28 28 35 33 29 25 20 23 21 17 17 14 13 11 10 11 10 9 7 6 6 6 6 6 7 8 9 11 14 15 16 17 16 15 16 16 15 13 13 13 11 11 12
25 21 25 23 16 13 16 13 12 14 12 13 12 2 9 15 16 17 20 21 20 20 18 17 18 21 23 25 22 20 22 21 21 19 17 20 23 24 23 23 26 27 29 29 30 33 31 29 28 26 25 23 21 19 16 13 10 9 9 9 8 7 5 5 5 6 6 7 8 9 10 12 13 14 14 14 14 15 16 15 14 13 13 13 13 14
26 23 23 22 18 18 20 16 16 16 12 12 9 0 5 9 14 16 18 18 17 15 16 17 19 22 24 24 23 22 23 20 18 18 19 23 25 24 21 21 24 26 28 29 30 32 31 29 29 28 27 26 24 22 17 11 9 9 8 8 7 6 6 6 7 7 8 8 9 10 10 11 12 13 13 13 13 15 16 16 15 14 15 16 17 17
26 24 23 22 21 20 19 16 14 12 10 11 8 2 2 3 9 14 17 17 17 16 18 20 20 23 24 22 22 23 23 19 17 18 21 26 27 23 20 21 23 25 27 29 29 31 30 28 29 28 27 26 25 22 17 10 8 8 7 8 7 7 8 8 9 10 10 11 11 11 11 11 13 13 13 12 13 14 15 16 17 17 18 19 19 20
26 25 25 23 22 21 16 10 7 8 8 10 11 8 9 6 4 10 14 16 19 21 24 24 22 23 23 22 22 21 22 22 21 23 24 27 28 23 21 22 22 23 26 28 29 31 30 26 28 29 27 25 25 21 16 10 9 9 8 8 8 8 9 10 11 12 13 13 13 13 12 12 13 13 13 12 14 15 16 18 20 21 22 22 22 22
26 25 25 22 22 20 15 12 12 12 12 13 13 11 11 7 7 9 12 15 17 21 24 24 23 23 22 20 18 17 20 22 23 25 27 27 26 22 21 21 21 22 26 28 29 30 29 27 29 30 25 23 23 20 15 12 12 11 10 10 10 11 11 11 12 13 14 15 14 14 13 13 13 13 13 14 16 17 19 21 23 24 25 25 25 24
27 26 24 24 24 20 16 18 16 11 10 14 17 16 14 13 13 11 12 15 15 17 19 20 21 22 20 16 14 17 19 18 21 26 27 25 23 22 22 21 20 23 27 29 29 29 29 29 31 29 23 21 20 18 15 14 14 13 12 12 12 13 13 13 14 14 15 15 15 14 14 14 15 15 15 16 18 21 23 25 25 25 26 26 26 25
25 26 26 27 26 23 21 21 16 12 13 15 19 21 22 23 20 17 15 15 16 18 18 20 22 20 18 16 16 18 18 16 21 25 24 22 24 26 26 24 24 27 30 30 30 31 32 31 30 27 23 20 17 15 14 15 15 14 14 13 13 14 15 15 16 16 16 16 15 14 14 15 16 17 18 19 21 24 26 27 27 25 24 24 24 23
23 26 28 28 25 23 24 23 19 20 22 22 20 19 22 23 21 19 18 16 16 16 16 17 17 17 17 18 18 19 19 18 21 24 23 24 26 28 30 29 29 31 32 32 34 36 35 32 29 26 24 21 17 15 15 16 16 15 14 14 14 14 15 16 17 17 17 16 15 14 15 17 18 20 21 22 24 26 27 28 27 24 23 22 22 21
20 24 27 26 23 22 24 26 25 26 26 23 17 16 19 20 19 19 17 13 9 7 8 11 14 16 18 18 19 19 20 19 20 22 24 27 28 30 32 33 32 33 33 36 37 35 33 33 31 28 25 22 18 17 17 17 17 16 15 14 14 15 16 16 16 16 16 16 15 16 17 19 21 23 23 24 25 26 26 27 26 23 22 22 22 22
19 22 24 23 22 23 24 24 24 22 20 18 15 16 20 18 16 14 10 7 5 5 8 12 14 18 20 19 18 16 18 19 20 23 26 29 30 32 34 33 32 33 34 37 37 34 34 35 33 32 28 23 20 19 19 19 18 18 17 16 15 15 16 16 16 15 15 16 17 18 20 22 24 24 25 25 25 24 24 24 25 24 23 22 23 24
18 19 19 18 20 23 22 17 15 14 14 17 18 20 23 20 12 7 5 5 6 7 12 15 17 20 21 19 17 17 19 21 22 26 30 30 30 31 33 33 32 33 35 37 36 36 37 35 34 33 28 24 22 21 21 20 19 19 18 17 16 16 15 16 16 15 15 17 19 21 22 23 24 24 24 24 23 23 22 23 25 25 25 25 25 26
16 15 15 16 17 20 17 8 6 7 7 12 18 23 26 22 15 12 8 6 9 12 16 18 20 22 21 19 19 20 21 22 25 29 29 27 27 29 32 33 33 34 36 37 37 38 37 36 35 32 27 25 24 23 22 21 19 17 16 15 15 16 16 16 15 15 16 19 22 23 24 24 24 24 23 23 22 22 23 24 26 27 27 28 29 30
14 11 13 16 16 17 13 6 4 5 5 8 11 15 18 18 19 19 16 14 16 16 18 22 23 22 22 21 22 22 23 26 29 27 24 24 26 27 30 32 33 36 37 38 39 39 38 36 34 31 28 26 25 24 23 20 17 15 13 13 14 15 16 16 16 17 19 21 23 24 25 25 25 24 24 24 24 24 25 26 28 29 30 31 32 32
12 9 11 15 16 16 12 9 11 11 10 10 9 8 10 13 18 20 19 18 17 15 19 24 25 23 22 22 21 22 24 26 26 22 22 24 26 28 30 33 35 38 38 39 40 40 38 35 33 31 30 28 27 26 21 17 15 13 12 13 14 16 17 17 18 18 20 22 23 24 25 26 27 28 28 28 28 29 29 29 30 31 32 32 33 33
10 9 11 14 17 16 14 14 14 9 7 7 6 7 8 9 14 18 19 18 17 17 21 24 25 25 23 22 21 21 23 22 21 21 22 24 27 30 33 35 37 38 39 40 41 40 37 35 33 33 33 33 30 24 18 15 14 13 13 15 16 17 18 18 19 21 22 23 23 24 25 26 29 31 32 32 32 33 33 33 33 33 33 33 33 33
7 9 12 15 18 17 15 14 13 6 4 8 8 10 11 10 12 16 19 20 18 17 19 23 26 27 25 24 23 22 22 21 21 22 22 24 29 32 34 36 36 38 39 39 40 39 38 36 34 34 35 32 26 20 17 15 14 14 15 17 18 19 19 19 21 23 24 24 24 25 26 28 30 32 34 35 35 35 35 36 35 35 34 34 34 33
6 9 15 19 20 19 13 12 13 8 5 6 7 10 12 12 12 14 18 20 20 18 20 24 27 28 27 26 25 24 23 22 21 22 23 26 30 33 35 37 38 38 38 38 39 39 38 36 34 34 32 27 21 19 19 16 15 16 18 19 20 19 19 20 22 23 24 24 26 28 29 31 33 34 35 36 37 37 36 37 37 36 35 35 34 33
6 10 18 23 22 19 14 13 13 12 9 9 11 12 11 11 12 15 16 15 16 19 21 24 27 29 28 26 24 24 23 21 20 21 24 28 32 36 40 40 38 37 36 37 38 37 36 35 35 33 30 26 22 20 20 19 19 19 20 20 20 20 20 21 22 23 25 27 29 30 32 34 36 36 36 37 37 37 37 37 37 37 36 35 34 33
7 11 20 25 23 18 16 16 16 15 15 14 15 13 9 9 11 15 16 14 17 21 24 26 27 27 27 25 23 23 22 22 22 24 27 32 36 41 42 40 37 36 36 37 37 35 34 35 36 33 28 25 23 20 20 22 22 21 21 20 19 19 20 21 22 24 26 28 30 32 33 35 37 37 36 36 36 36 36 36 36 36 36 35 34 33
6 8 14 22 24 20 17 15 14 16 17 14 14 11 11 16 16 14 14 15 19 23 24 25 24 24 23 22 21 21 22 24 26 28 32 36 41 43 41 38 37 37 36 36 35 34 34 34 34 30 26 25 23 21 22 24 23 21 21 20 19 20 21 22 24 26 28 30 31 32 33 35 36 36 35 34 34 35 35 35 35 35 36 35 34 33
6 9 12 18 25 23 17 13 14 18 17 12 12 14 19 24 24 21 18 17 19 23 25 25 24 22 20 18 18 20 22 25 28 32 36 41 44 43 40 37 36 35 34 34 34 33 33 33 31 28 25 24 23 23 23 23 22 21 22 22 22 22 24 25 27 28 30 30 31 31 32 33 34 33 32 32 32 33 34 35 35 36 36 36 35 34
12 15 14 17 27 26 19 17 16 18 19 13 11 16 19 21 22 24 23 22 23 24 24 23 22 21 19 19 21 22 24 27 30 34 38 41 41 38 36 34 33 33 32 33 34 33 33 32 28 26 25 24 25 26 25 22 21 22 24 24 26 26 27 29 29 30 30 30 30 30 30 31 31 31 31 31 31 32 34 35 36 36 37 37 36 35
14 18 17 17 26 26 22 20 16 15 20 19 18 20 21 22 23 25 25 25 24 23 20 18 18 20 20 22 25 26 28 31 34 36 38 38 36 34 33 32 31 32 32 33 34 32 31 29 26 25 25 26 27 27 25 23 23 25 26 27 29 30 30 31 31 31 30 30 29 28 29 31 32 32 32 32 32 32 33 34 35 36 36 36 36 35
11 16 19 19 21 22 23 23 17 14 18 23 27 29 28 28 27 25 25 24 23 23 23 21 21 22 22 25 27 29 32 35 37 37 36 35 33 31 31 30 30 31 32 33 32 30 29 27 26 25 26 27 28 27 26 26 27 28 29 30 31 31 31 31 31 30 30 29 29 28 29 31 33 34 34 33 33 33 33 33 33 33 33 34 34 33
13 14 19 21 19 18 20 21 19 18 21 25 28 29 29 29 26 23 23 23 23 25 27 28 29 28 28 29 30 32 35 36 36 34 33 32 31 30 29 29 29 31 31 30 29 28 27 26 26 27 27 27 27 27 27 28 29 30 31 32 32 31 31 30 29 29 28 29 29 30 31 32 33 34 34 33 33 32 31 30 30 30 30 30 30 30
13 12 16 21 18 12 12 15 19 21 23 23 23 22 22 23 22 21 23 24 25 26 28 31 32 32 34 35 34 34 33 32 31 30 30 30 30 30 29 29 29 29 28 27 26 25 24 25 25 26 26 27 27 28 29 30 31 32 32 32 31 30 29 28 27 28 29 30 30 31 31 32 33 32 32 31 30 28 28 27 26 26 26 26 25 25
9 8 14 21 18 11 9 13 19 20 19 19 19 20 21 23 22 23 24 24 24 24 25 27 26 26 27 29 30 30 28 27 27 27 28 29 29 28 27 27 28 27 26 25 24 23 23 23 24 24 25 26 27 29 31 32 32 32 32 31 30 28 27 26 27 29 30 31 31 31 31 31 30 29 28 27 26 25 25 24 24 24 24 24 23 22
5 7 12 20 19 15 12 15 19 22 21 18 18 20 23 24 24 25 25 24 23 24 25 25 24 23 22 23 24 24 24 24 25 26 27 27 27 26 26 26 26 25 24 23 23 23 23 23 23 23 24 26 28 31 32 32 32 31 30 29 27 26 26 27 29 30 31 31 31 31 29 27 26 26 26 26 25 25 24 24 23 23 22 22 21 20
4 7 8 16 19 18 16 17 21 25 24 22 21 23 24 24 25 25 26 25 25 25 25 24 24 24 25 24 22 20 20 22 24 25 25 25 25 25 25 24 23 23 23 23 23 23 23 23 23 24 25 27 30 31 31 31 31 29 28 26 25 25 27 29 30 30 30 31 30 28 26 25 25 25 26 26 25 24 24 23 22 21 21 21 20 19
7 5 5 11 17 19 21 23 24 25 23 23 24 25 25 26 26 25 25 24 24 23 22 23 23 23 22 20 18 19 21 23 24 23 23 24 25 25 23 22 22 22 23 23 22 22 22 23 24 25 27 29 30 30 30 29 28 26 24 24 25 27 29 29 30 30 29 28 26 25 24 24 25 25 24 24 24 23 22 21 21 20 20 20 19 19
10 4 3 8 14 19 23 24 23 22 22 22 22 21 22 24 25 25 25 24 22 21 20 20 21 20 19 18 19 21 22 23 22 22 22 23 24 23 22 21 22 23 23 21 21 21 22 23 25 27 28 29 29 29 28 26 24 23 24 25 28 29 29 29 29 28 26 25 24 24 24 24 23 23 22 22 22 21 21 20 20 20 20 19 19 19
11 7 6 10 15 19 21 21 21 22 23 23 22 22 22 23 25 25 25 23 21 19 18 18 19 19 19 19 20 21 21 21 21 21 22 23 23 22 21 22 23 23 21 20 20 21 23 25 27 28 28 28 27 27 25 24 23 24 26 27 28 29 29 28 26 24 23 23 23 23 23 23 22 22 21 21 21 21 21 20 20 19 19 19 19 18
14 12 11 13 15 17 18 18 20 22 23 23 22 22 22 22 23 23 20 17 16 15 16 17 18 19 19 19 20 20 20 20 19 20 21 21 20 20 21 22 23 21 19 19 20 22 25 27 28 28 27 26 26 25 24 24 24 26 27 27 27 27 26 24 22 22 22 22 22 22 22 22 21 21 21 20 20 20 20 20 19 19 19 19 18 18
15 15 17 17 19 19 17 17 19 20 19 20 19 18 18 18 18 17 14 11 11 12 14 16 18 18 18 18 19 19 19 19 19 20 20 19 19 20 22 22 21 19 19 20 22 25 28 28 28 27 26 25 25 24 24 25 25 26 26 26 26 25 23 21 21 22 22 22 22 22 21 21 20 20 20 20 20 20 20 20 19 19 19 19 18 18
12 12 14 17 22 25 22 19 19 19 19 20 20 19 18 16 14 11 9 8 10 11 14 15 16 16 16 17 18 19 19 19 19 19 18 18 18 20 21 21 20 19 20 22 25 27 28 27 26 26 25 24 24 24 25 25 25 25 25 25 24 22 20 21 21 21 21 22 22 21 21 20 20 20 20 20 20 20 20 20 19 19 19 19 19 18
12 12 11 13 19 24 24 21 20 20 20 20 20 19 18 15 11 8 7 8 10 13 15 15 13 13 15 17 18 18 18 18 18 17 16 17 19 20 20 19 19 20 22 25 27 27 26 26 25 25 24 24 25 25 25 24 24 24 24 23 21 20 20 20 21 21 22 22 21 20 20 20 20 20 20 20 20 20 20 20 20 19 19 19 19 18
17 15 14 16 20 22 23 22 21 21 20 20 20 20 17 15 11 7 8 10 12 14 15 14 12 12 15 17 18 19 18 17 16 16 16 18 19 19 18 17 18 21 24 26 26 25 25 25 25 25 25 26 26 26 24 23 23 23 22 20 19 19 20 20 21 21 21 21 20 20 20 20 20 20 20 20 20 20 20 20 20 19 19 18 18 18
19 18 18 21 23 24 25 25 24 23 21 19 20 18 15 13 10 8 10 13 15 15 15 13 12 13 15 17 18 18 17 15 15 15 16 18 17 16 16 17 19 22 24 25 24 24 24 24 25 26 26 25 25 24 23 22 21 20 19 18 18 19 19 20 20 20 20 19 20 20 20 20 20 20 20 20 20 20 20 20 20 20 19 19 19 18
18 16 17 21 23 24 25 26 26 24 21 17 15 13 11 11 10 10 12 14 15 15 14 13 14 15 16 17 17 16 14 14 15 16 17 16 15 15 16 19 21 23 23 23 22 22 23 24 25 24 24 24 24 23 22 20 18 17 17 17 18 19 19 20 19 18 18 19 19 19 19 20 20 20 20 20 20 20 20 20 20 20 20 20 19 19
22 19 18 20 22 24 26 26 21 15 13 12 12 11 12 12 12 12 14 15 15 15 14 14 15 16 17 17 16 14 13 14 15 16 16 15 14 15 18 20 22 22 22 21 21 21 23 24 24 24 24 24 23 21 20 17 16 16 17 18 19 19 19 18 18 18 18 19 19 19 19 19 20 20 21 21 21 21 21 21 21 21 21 20 20 19
26 24 23 23 24 25 25 21 12 7 9 13 14 15 15 15 14 15 15 15 15 14 14 15 16 17 18 17 15 13 14 15 16 16 15 14 14 16 19 21 21 21 21 21 22 22 23 24 24 24 24 22 20 18 16 15 15 16 17 18 19 19 18 17 17 18 18 19 19 19 19 19 20 21 21 22 22 22 22 22 22 22 22 21 21 21
27 27 27 27 27 25 22 18 13 10 12 15 17 18 17 16 17 17 17 16 15 15 14 15 16 17 17 15 13 13 15 16 15 14 14 14 15 18 20 21 20 20 21 22 23 23 24 25 24 24 22 19 17 15 14 14 15 17 17 18 18 17 17 17 18 18 18 19 19 18 19 19 20 21 22 23 23 23 23 23 22 22 23 23 23 22
27 27 27 26 25 23 21 20 18 16 15 16 19 20 19 19 20 19 18 17 16 15 15 16 16 16 14 12 12 14 15 14 14 13 13 15 17 19 20 20 20 21 22 23 23 24 24 24 23 22 20 17 15 14 13 14 15 16 17 17 16 16 16 17 18 18 18 18 18 17 18 19 21 22 23 24 24 24 24 24 23 23 23 23 23 23
23 24 25 25 24 22 20 19 18 18 18 19 20 21 20 20 20 19 18 17 16 15 16 16 16 14 12 12 13 14 13 12 12 12 13 16 18 19 20 20 20 22 22 23 24 24 24 23 21 19 18 16 15 14 14 14 15 16 16 15 15 16 16 17 17 18 18 17 16 17 18 20 21 23 24 24 24 24 24 24 24 24 24 24 24 24
21 20 21 21 21 20 19 17 18 18 19 20 20 20 20 20 19 18 17 17 16 15 16 16 15 12 11 13 14 12 11 11 11 12 14 17 18 19 19 19 20 21 22 23 24 24 22 21 19 18 16 15 14 14 14 14 15 15 15 15 15 16 17 17 17 16 16 16 16 17 19 20 21 22 23 24 24 24 24 24 24 24 24 25 25 25
20 20 19 18 18 18 19 19 20 19 20 20 21 21 21 21 20 18 18 17 16 16 16 15 13 11 12 13 12 9 9 10 11 13 15 17 18 18 18 19 20 21 21 22 23 22 20 19 17 16 15 14 14 15 15 15 15 15 15 15 16 16 17 17 16 16 16 16 17 18 19 20 22 23 23 24 24 24 24 24 24 24 25 25 25 25
17 18 18 16 15 15 16 17 18 19 19 19 20 21 21 20 19 19 18 17 16 16 15 13 12 12 13 13 10 7 8 9 11 14 16 17 17 17 18 19 20 20 21 21 21 19 17 16 15 14 14 14 14 15 15 15 15 16 16 15 16 16 16 16 16 17 17 17 18 19 21 22 23 23 24 24 25 25 25 25 24 24 25 26 26 26
Wind_Direction
205 184 173 170 158 142 130 109 65 40 358 316 303 303 328 340 344 355 355 352 355 352 356 358 351 352 357 353 348 349 350 353 358 4 7 8 11 14 19 17 8 1 358 3 12 11 8 6 6 11 7 358 355 0 357 352 349 344 338 328 327 312 306 315 311 299 285 281 279 274 272 271 284 303 308 307 304 301 296 292 289 287 287 288 292 297
209 186 172 163 160 163 145 105 73 48 332 304 294 289 334 341 340 350 350 345 340 333 341 348 344 348 358 356 343 339 342 347 355 2 5 5 4 8 16 14 7 359 355 359 12 13 11 10 11 14 8 2 355 357 354 348 341 335 331 319 313 303 301 311 307 303 292 281 273 266 265 268 281 299 304 306 307 304 299 293 291 288 287 288 293 299
209 179 168 160 159 182 146 105 77 55 292 224 159 231 347 342 343 352 344 340 336 323 326 336 341 345 350 350 344 340 338 343 358 4 3 1 359 3 9 11 6 357 356 358 1 3 6 10 13 5 359 3 2 352 343 339 336 329 326 317 313 309 306 308 300 301 296 286 278 270 269 272 280 290 295 297 297 295 293 291 291 288 287 290 296 298
212 177 166 170 189 216 157 125 117 134 146 147 162 144 0 340 346 350 329 329 327 315 320 333 340 340 339 340 343 346 338 340 0 5 1 357 354 359 4 6 3 354 357 1 356 357 2 6 7 359 354 356 356 351 339 331 330 327 324 315 313 313 309 307 302 305 301 294 289 280 276 276 280 286 289 291 290 287 286 287 290 290 291 295 297 295
217 187 175 188 208 196 158 147 148 147 143 150 170 146 3 335 343 341 317 315 312 309 325 338 338 331 329 331 338 344 334 339 359 359 354 352 350 357 0 360 359 352 353 357 354 357 1 0 359 357 355 354 353 354 346 332 327 329 322 311 313 317 320 320 314 316 309 302 297 289 285 282 283 285 285 286 284 283 284 286 288 289 293 296 295 294
222 204 192 194 196 179 165 165 159 157 165 171 185 117 14 331 337 333 312 308 312 322 336 331 326 321 319 327 339 338 327 337 358 349 347 352 351 356 354 351 354 349 347 349 352 355 354 354 355 353 352 352 351 352 350 339 328 329 320 308 312 317 323 325 321 318 310 304 298 292 290 287 286 285 284 285 282 283 286 288 288 287 289 291 291 292
225 217 206 192 189 189 180 170 157 160 176 172 177 213 235 285 327 321 310 310 314 322 321 313 312 311 312 323 335 332 325 335 350 343 346 353 352 350 343 342 347 344 341 344 348 351 350 350 354 353 350 349 349 347 348 345 332 329 316 303 303 307 313 315 314 312 306 302 296 291 289 287 287 286 287 287 286 288 291 294 294 291 289 288 287 287
226 223 218 204 204 210 196 168 156 185 196 165 168 207 209 203 297 298 291 298 303 299 294 296 303 306 311 321 327 327 326 331 339 342 348 351 349 345 338 338 341 338 336 339 345 347 348 349 350 349 347 346 346 345 347 345 334 327 314 299 292 295 301 302 304 303 302 301 297 295 292 289 287 288 292 294 294 297 299 300 299 295 292 288 285 283
228 226 225 217 211 214 205 183 177 198 207 175 178 211 208 217 284 282 268 276 284 281 280 289 300 304 313 328 330 324 321 326 334 342 348 349 347 343 339 337 337 332 331 336 341 342 343 342 341 342 344 345 344 343 343 339 332 327 318 302 292 292 293 292 294 297 301 302 300 298 293 289 288 290 294 296 296 299 300 301 299 297 295 290 286 283
228 227 228 220 208 206 200 182 176 203 221 188 192 217 226 245 268 273 276 277 270 266 273 287 296 299 308 321 322 314 315 326 335 339 344 346 341 338 337 336 332 328 330 334 336 337 337 338 339 343 346 347 344 339 334 331 330 327 318 306 296 293 291 289 290 293 299 301 300 294 287 284 286 290 293 293 293 295 297 299 300 299 296 291 288 286
228 227 228 225 215 207 193 181 189 224 242 229 223 232 240 246 248 250 265 275 272 273 281 289 291 294 301 306 309 307 308 323 334 335 337 336 333 332 334 334 331 329 331 333 333 333 334 335 340 345 348 347 342 333 325 323 325 322 314 305 296 291 288 287 289 292 298 301 298 291 285 283 285 290 294 294 294 295 298 300 300 299 295 291 290 290
229 229 230 230 227 215 197 189 205 222 232 242 246 246 243 238 239 244 253 267 281 288 295 297 292 294 301 305 308 307 307 320 331 332 330 328 327 329 333 335 332 331 333 336 336 334 334 335 338 342 344 345 341 329 320 317 317 316 310 302 295 290 286 285 289 294 298 299 297 292 288 288 290 294 297 297 297 298 300 301 300 298 296 294 293 292
227 230 233 233 230 223 208 201 210 222 232 242 249 247 231 223 237 248 250 266 296 316 310 307 301 297 298 301 306 308 311 321 327 327 327 328 328 331 335 335 331 330 335 340 343 343 341 340 337 336 337 340 338 326 317 313 311 310 307 300 294 290 287 286 289 293 296 297 296 295 293 294 296 297 298 297 297 297 299 299 297 296 295 295 294 292
223 228 237 237 232 227 221 219 224 232 246 255 252 235 223 226 245 249 244 269 334 6 326 314 306 299 296 298 308 314 316 319 322 323 325 328 329 332 335 333 330 332 337 339 342 343 341 339 337 334 333 334 334 324 316 312 307 308 306 300 294 291 289 287 288 290 293 294 295 295 295 296 298 298 298 297 297 297 297 295 293 292 291 291 290 290
227 227 233 237 235 230 228 238 250 254 266 267 254 237 231 236 252 257 253 288 327 325 311 306 300 298 297 300 308 316 317 316 317 321 324 327 329 331 333 332 330 332 335 336 337 336 336 337 335 333 333 333 331 323 316 311 306 305 302 298 295 293 290 288 288 288 288 292 295 296 297 297 297 298 298 299 299 299 296 292 290 289 289 288 287 287
235 230 224 222 222 221 219 218 236 247 269 267 256 249 244 247 268 282 273 291 311 298 289 289 292 298 301 300 300 304 311 314 315 320 324 326 327 329 332 332 329 330 332 333 334 334 334 335 335 335 335 333 328 321 315 309 306 305 302 301 297 293 292 290 288 287 288 292 297 299 300 299 299 299 299 301 301 299 295 291 289 289 289 289 288 288
237 230 223 215 201 200 196 179 218 249 279 289 284 273 260 254 264 268 261 272 294 291 278 282 292 297 299 300 298 298 306 312 313 317 321 323 325 328 329 329 328 328 329 329 329 330 331 332 334 335 333 329 324 319 313 308 309 310 309 308 301 295 295 292 289 287 288 294 298 301 303 302 302 301 300 301 301 299 296 293 291 290 290 290 290 289
235 215 216 213 188 179 182 201 236 245 259 285 310 309 279 252 247 252 255 265 279 278 272 280 288 290 294 300 298 297 303 308 310 314 318 320 323 324 325 325 325 325 325 324 325 327 329 329 331 331 327 324 320 318 315 314 316 315 311 308 303 299 299 297 292 289 290 295 299 304 305 304 304 302 301 303 303 301 298 295 293 292 291 291 290 290
225 198 202 196 174 176 198 221 233 230 233 255 282 302 292 262 245 248 252 255 258 259 263 272 279 285 295 301 298 299 302 305 308 311 315 316 317 319 321 322 322 322 322 322 322 325 326 327 328 326 324 324 321 318 319 322 321 316 309 304 302 302 302 299 294 292 294 297 301 305 306 305 304 303 303 304 304 303 300 298 296 295 293 292 292 292
219 199 187 176 176 188 207 227 233 226 218 227 248 283 291 277 257 252 254 254 252 256 264 273 279 286 295 300 299 301 301 299 301 305 307 310 312 316 318 320 320 319 319 320 320 323 325 326 326 325 325 326 323 322 327 325 319 313 307 304 304 305 302 297 293 293 295 299 303 307 307 304 303 302 304 304 304 303 301 299 297 296 295 293 293 294
225 198 171 175 190 192 194 224 231 229 239 240 267 297 301 291 272 258 258 259 257 262 271 277 282 287 292 295 297 301 300 295 297 300 303 309 314 317 319 319 319 318 319 320 320 322 325 325 325 325 325 325 323 325 326 321 314 310 307 307 307 305 300 296 295 297 299 303 307 308 306 304 303 304 305 304 302 301 299 298 297 296 295 294 293 293
218 196 176 184 196 188 188 212 207 204 221 241 268 288 303 306 286 265 260 259 262 269 275 280 285 289 289 290 294 300 300 298 300 302 306 313 317 318 319 318 317 318 319 319 320 323 325 323 323 324 324 324 326 326 322 318 316 313 311 311 309 305 301 299 300 302 304 306 306 306 305 304 304 304 303 301 300 299 298 298 297 297 296 295 295 294
218 206 188 189 191 184 190 196 188 198 208 220 248 268 290 301 290 271 262 264 272 278 280 282 286 287 285 284 288 293 295 297 301 304 309 315 315 314 315 314 314 315 316 317 319 322 321 319 319 320 320 322 325 326 321 319 318 316 317 316 310 305 302 301 302 303 304 304 304 304 304 302 300 300 299 299 299 299 299 299 298 297 296 295 295 294
231 231 204 192 186 179 183 188 197 209 208 221 247 255 260 262 264 263 257 257 265 271 273 276 281 283 281 280 281 283 287 292 298 303 308 311 310 311 312 311 311 312 312 314 317 318 318 317 318 317 317 321 325 324 322 321 318 318 320 317 310 306 304 302 302 303 303 303 303 302 300 298 298 298 300 301 302 301 301 300 299 298 296 296 296 295
230 253 237 204 188 182 184 196 210 211 212 235 242 227 233 243 249 253 249 246 253 260 266 271 279 283 280 279 281 284 290 294 299 305 307 307 307 308 309 309 310 311 312 314 315 317 317 317 317 315 316 323 326 324 323 321 317 316 318 315 312 310 308 306 305 304 304 303 303 302 301 300 300 301 303 304 303 302 301 299 298 297 295 295 294 293
239 240 239 207 190 187 191 200 210 212 217 224 200 200 222 232 235 239 239 243 251 259 269 277 280 281 278 280 283 287 294 300 305 309 308 306 306 307 307 308 310 311 314 315 315 317 318 317 316 314 317 324 326 323 323 321 316 316 318 317 315 313 310 308 307 306 306 306 306 306 305 304 304 304 305 304 302 300 299 298 297 295 294 293 292 291
252 235 231 211 193 194 202 206 212 218 224 223 205 203 222 231 232 234 237 245 253 259 273 284 282 278 278 280 284 289 297 303 306 308 307 305 306 307 308 309 311 313 315 315 316 318 319 317 316 316 320 324 324 323 324 322 319 319 318 316 314 313 311 310 310 310 311 311 312 312 310 308 307 306 306 304 302 300 298 297 296 295 295 294 292 290
273 244 234 222 202 202 213 213 212 219 226 229 222 216 222 231 238 242 242 247 257 260 266 273 276 278 281 282 286 290 294 298 301 302 304 305 307 309 310 310 312 314 315 316 317 319 319 318 318 319 322 323 323 323 324 321 319 318 316 314 313 313 313 313 314 314 315 315 316 315 312 309 307 307 307 306 304 302 300 299 297 296 295 294 293 290
293 273 248 235 218 212 220 217 214 221 226 230 230 227 230 235 238 244 247 255 266 266 264 268 273 277 280 281 284 287 289 292 296 299 303 307 309 310 311 313 315 315 315 317 319 320 319 319 321 321 321 321 322 322 320 319 317 315 315 314 314 314 315 316 317 317 316 317 316 315 312 310 309 309 309 308 307 305 304 303 301 299 298 296 295 293
293 291 255 240 227 213 221 221 216 223 231 239 246 250 254 254 253 257 262 269 275 273 267 267 271 276 277 276 278 282 286 292 296 299 303 307 308 310 312 314 315 315 317 319 320 319 318 319 319 318 316 317 319 318 317 316 315 315 315 315 316 316 317 318 318 317 317 317 316 315 314 312 311 311 311 310 311 311 311 310 308 306 304 303 301 299
295 291 246 236 226 207 227 231 216 219 236 250 261 268 270 271 272 273 273 275 279 280 276 275 281 285 281 277 279 284 289 294 299 303 305 307 308 309 311 313 315 317 318 319 320 318 316 316 314 313 314 316 316 316 315 315 315 315 316 316 316 317 318 319 319 318 318 318 318 317 315 314 314 315 315 316 317 318 317 316 315 313 310 309 307 306
301 291 246 234 222 206 226 240 224 223 237 248 259 269 269 270 274 277 277 279 282 286 288 290 297 299 295 293 295 294 295 298 303 305 306 307 307 308 311 314 319 320 317 317 319 317 315 314 314 315 317 317 315 315 314 314 315 315 315 315 316 317 319 320 320 320 320 320 319 318 318 318 319 319 319 319 319 319 318 318 317 316 314 311 310 309
290 308 270 237 221 205 217 237 233 230 236 243 252 261 265 267 271 274 280 285 286 286 289 293 299 300 300 302 302 299 300 303 304 305 305 306 308 309 313 317 322 322 317 315 317 317 315 316 317 319 318 316 315 314 313 313 314 314 314 315 317 320 322 322 322 322 321 320 320 322 324 324 323 322 322 321 321 320 319 318 318 317 316 314 314 312
227 286 295 247 223 208 214 227 231 233 240 246 250 253 257 261 265 271 281 288 288 288 289 291 296 300 302 303 304 304 304 303 302 304 306 308 310 312 316 318 321 322 318 316 317 317 317 317 319 319 317 315 314 313 313 314 314 314 316 319 322 323 324 323 322 322 322 324 326 328 328 327 327 327 327 326 326 325 323 321 320 320 319 319 318 315
195 205 262 237 208 200 210 221 230 241 249 252 253 254 258 263 267 272 283 291 294 296 297 298 303 306 306 308 308 306 303 301 303 306 308 311 313 314 316 318 320 321 319 317 316 316 316 317 318 318 317 316 315 314 315 316 317 319 322 323 324 324 324 324 324 325 328 330 330 330 330 330 331 332 331 330 329 328 326 326 324 323 323 322 321 318
172 166 217 223 201 197 208 221 235 246 250 251 254 256 261 268 271 276 285 293 298 301 305 311 315 313 310 307 305 304 304 304 306 308 309 311 312 313 315 318 320 320 319 316 315 315 317 318 319 319 319 317 317 318 319 320 321 323 324 324 325 324 325 326 328 331 333 332 332 332 333 333 334 333 332 332 331 330 331 331 330 328 326 324 322 321
176 175 205 226 225 222 224 232 243 249 251 255 259 261 264 271 276 281 287 293 300 308 316 321 320 314 309 305 301 302 305 307 307 307 307 309 310 313 316 318 319 320 319 317 317 318 320 321 322 321 320 319 320 322 323 323 324 325 325 326 326 326 329 332 335 336 334 334 334 334 334 334 334 334 333 333 333 334 334 335 335 334 332 328 326 324
190 186 200 217 234 241 243 247 249 252 256 259 260 262 267 274 277 279 283 294 311 322 322 317 312 307 304 301 299 303 307 309 308 307 306 309 312 316 318 318 320 321 320 321 322 322 323 323 323 322 322 322 323 324 324 325 327 327 328 328 329 332 337 339 339 338 336 336 337 336 336 337 337 337 337 338 338 339 338 338 339 340 339 336 334 331
206 211 214 216 227 235 241 244 246 249 256 260 262 267 272 271 266 264 278 307 324 326 319 311 305 300 299 300 302 306 310 311 309 307 309 312 316 318 318 318 320 321 322 323 323 324 324 324 323 323 324 324 325 326 327 330 330 330 330 331 335 341 344 342 340 340 340 341 341 340 341 343 342 342 343 343 343 343 342 341 342 342 342 342 341 339
211 232 233 217 220 229 233 237 243 250 257 261 268 275 272 259 248 255 285 312 320 319 316 312 304 297 298 302 306 309 311 311 309 309 313 317 319 319 318 319 321 322 323 324 323 324 325 325 325 326 327 328 329 331 333 334 333 333 334 338 343 347 346 344 344 345 347 347 346 347 348 349 349 350 350 350 349 348 347 346 346 345 344 343 342 341
217 230 230 225 229 234 237 242 251 259 263 266 272 277 269 255 252 273 299 309 316 316 315 312 307 301 301 304 307 311 312 310 309 312 317 319 318 317 316 318 322 323 324 324 325 326 327 327 328 329 331 333 334 335 337 336 336 338 341 345 349 349 347 348 350 352 351 350 351 353 354 356 356 357 357 357 357 356 355 354 352 350 348 346 344 341
222 227 230 233 238 241 243 248 256 262 266 269 271 271 267 263 270 290 303 308 312 310 308 309 309 307 306 306 309 311 312 310 312 316 318 318 316 316 318 322 324 325 325 327 328 329 330 330 332 334 335 337 337 338 339 339 340 344 347 350 352 351 351 354 355 354 353 353 356 358 359 1 2 3 3 3 2 2 1 360 358 356 354 351 349 346
222 222 226 232 237 241 245 250 255 258 259 262 263 261 264 272 280 291 300 304 306 306 306 308 308 308 309 309 310 311 311 312 314 316 317 317 319 321 324 325 327 328 329 331 332 333 333 334 336 338 338 339 340 341 341 344 347 350 351 353 354 355 356 357 357 356 357 360 2 4 5 7 8 8 9 9 8 7 6 4 1 359 356 354 351 348
225 223 226 231 235 240 247 253 258 256 249 249 252 252 258 270 277 285 294 301 304 306 305 305 307 310 311 312 312 312 312 315 316 316 318 322 326 327 328 329 331 332 332 334 335 335 336 339 340 340 341 342 343 344 346 351 355 355 355 356 357 359 359 359 359 1 4 5 6 8 10 12 13 15 15 13 11 10 8 6 4 1 358 355 352 349
229 231 234 238 240 243 249 257 268 270 252 251 253 255 261 269 276 284 294 301 302 301 300 304 309 311 312 314 314 314 316 318 318 319 322 327 329 329 329 331 332 333 333 335 337 340 342 344 344 345 346 347 348 350 354 358 359 358 358 359 360 0 1 2 3 5 7 8 9 10 13 16 17 17 15 11 9 8 6 4 3 1 358 356 354 351
231 235 237 241 245 247 252 262 277 281 268 263 266 270 274 278 282 289 295 296 294 294 297 304 308 310 312 314 314 316 319 319 318 320 325 328 329 330 331 332 333 335 336 338 342 346 347 347 349 350 351 352 354 358 1 1 1 1 1 1 1 4 5 5 5 6 8 10 10 11 14 16 15 13 10 7 5 4 3 2 1 360 358 356 355 353
232 236 239 243 248 252 260 270 276 274 268 267 273 278 281 283 286 290 292 292 293 296 301 305 308 310 312 313 314 317 319 317 317 322 327 329 330 332 333 335 337 338 339 343 348 351 351 352 354 355 357 359 2 3 4 3 3 3 3 4 6 8 7 5 4 6 9 9 9 10 12 10 8 6 4 3 2 2 1 360 359 359 359 357 356 354
235 239 243 247 253 261 269 275 276 273 268 269 274 279 284 287 288 288 289 291 294 299 303 306 308 310 313 315 318 321 320 316 317 323 329 330 331 333 335 338 340 341 344 349 353 354 355 357 359 0 2 5 6 5 4 4 4 4 5 6 7 7 6 5 5 7 6 5 5 6 5 4 3 1 360 359 1 1 360 359 359 359 359 358 358 356
244 246 248 250 254 260 267 272 275 274 270 270 275 282 290 294 293 290 290 292 295 299 302 305 307 312 316 319 322 323 317 313 318 326 330 331 333 337 340 341 343 346 350 354 355 356 358 2 3 4 6 6 5 6 6 4 3 5 6 5 4 3 2 3 4 4 1 359 0 0 359 359 358 357 357 358 0 1 360 359 359 359 358 359 359 357
251 251 252 254 257 263 268 271 273 271 268 270 277 285 292 295 293 290 292 295 297 300 304 307 311 317 319 321 322 319 310 312 322 330 332 334 337 341 343 344 347 352 355 355 356 359 3 5 5 5 6 6 4 4 5 3 2 3 4 2 360 359 359 358 358 357 356 355 355 355 354 354 354 355 357 358 359 359 359 359 359 358 357 358 358 357
251 251 252 256 261 265 266 265 264 265 268 273 278 284 287 288 287 289 293 296 299 303 307 310 314 318 319 320 319 312 309 318 329 333 335 337 340 341 343 346 350 355 357 356 357 1 4 6 6 7 7 7 5 3 3 3 1 2 2 360 356 355 354 352 351 352 351 350 351 351 352 352 353 355 358 359 358 358 358 357 357 357 356 356 357 358
Height
5936 5937 5938 5939 5941 5941 5940 5939 5939 5940 5942 5944 5946 5947 5946 5945 5944 5943 5943 5942 5942 5942 5943 5944 5942 5941 5939 5935 5933 5931 5929 5927 5927 5926 5924 5923 5922 5922 5922 5921 5919 5916 5914 5914 5913 5910 5908 5907 5907 5907 5906 5904 5902 5899 5897 5895 5894 5892 5891 5889 5888 5887 5885 5884 5882 5882 5881 5881 5881 5880 5880 5879 5878 5877 5876 5876 5875 5874 5872 5871 5870 5869 5868 5867 5867 5866
5933 5936 5937 5939 5939 5939 5938 5938 5939 5940 5943 5945 5947 5947 5946 5944 5943 5942 5942 5941 5941 5942 5943 5943 5942 5941 5940 5937 5934 5932 5930 5928 5927 5926 5924 5923 5922 5923 5923 5922 5919 5916 5914 5913 5912 5910 5908 5907 5906 5907 5906 5904 5902 5899 5897 5895 5893 5892 5890 5889 5887 5886 5884 5883 5881 5881 5880 5879 5879 5879 5878 5877 5877 5876 5875 5874 5874 5872 5871 5870 5869 5868 5867 5866 5865 5864
5931 5935 5937 5938 5939 5938 5938 5937 5938 5941 5943 5945 5947 5946 5944 5942 5942 5941 5940 5941 5940 5941 5941 5941 5941 5940 5940 5938 5936 5932 5930 5928 5928 5926 5924 5923 5923 5923 5924 5923 5920 5916 5914 5913 5912 5911 5908 5906 5906 5905 5905 5903 5901 5898 5896 5894 5892 5891 5890 5888 5887 5885 5883 5882 5881 5880 5879 5878 5878 5877 5876 5875 5874 5874 5873 5872 5872 5871 5869 5869 5868 5866 5865 5864 5864 5863
5929 5933 5935 5936 5937 5937 5936 5936 5938 5940 5941 5944 5945 5944 5942 5940 5940 5940 5939 5939 5939 5939 5939 5939 5939 5939 5939 5938 5936 5933 5929 5927 5927 5926 5925 5924 5923 5924 5923 5922 5920 5917 5915 5915 5913 5911 5908 5907 5907 5905 5904 5902 5900 5897 5894 5892 5891 5890 5889 5887 5886 5885 5883 5882 5881 5880 5879 5877 5876 5876 5875 5873 5872 5871 5870 5870 5870 5869 5868 5867 5866 5865 5864 5863 5862 5861
5928 5932 5933 5933 5934 5934 5934 5935 5936 5937 5938 5941 5942 5942 5941 5939 5939 5940 5939 5937 5937 5937 5937 5937 5937 5938 5937 5937 5935 5932 5929 5927 5926 5925 5925 5924 5924 5924 5923 5921 5920 5917 5915 5914 5912 5910 5909 5908 5907 5905 5903 5901 5898 5896 5893 5892 5890 5889 5888 5886 5885 5884 5882 5881 5880 5879 5878 5876 5875 5874 5873 5872 5871 5870 5868 5868 5867 5866 5866 5865 5865 5864 5863 5862 5861 5860
5926 5929 5931 5932 5933 5933 5932 5933 5934 5935 5937 5939 5941 5942 5941 5940 5939 5938 5937 5936 5936 5936 5935 5936 5937 5937 5936 5936 5935 5932 5928 5926 5925 5925 5925 5925 5925 5924 5922 5921 5919 5917 5915 5913 5911 5910 5909 5908 5907 5904 5902 5900 5897 5895 5893 5892 5890 5889 5887 5886 5884 5883 5881 5880 5879 5877 5876 5875 5873 5872 5871 5870 5869 5868 5867 5866 5866 5865 5864 5863 5863 5863 5862 5861 5860 5859
5924 5927 5928 5930 5932 5931 5931 5932 5933 5935 5937 5939 5941 5942 5942 5941 5939 5937 5935 5935 5935 5934 5934 5935 5936 5936 5936 5935 5934 5931 5928 5926 5925 5924 5924 5924 5924 5924 5922 5921 5919 5916 5914 5912 5911 5910 5909 5908 5907 5904 5901 5899 5896 5894 5892 5891 5891 5889 5888 5886 5884 5882 5880 5879 5877 5876 5875 5873 5872 5870 5869 5869 5868 5866 5866 5865 5864 5863 5863 5862 5861 5861 5861 5860 5859 5857
5922 5924 5926 5928 5930 5930 5931 5932 5934 5936 5937 5938 5940 5940 5940 5939 5939 5937 5936 5935 5934 5933 5934 5934 5934 5935 5935 5934 5933 5931 5928 5926 5924 5924 5923 5923 5923 5923 5921 5920 5919 5916 5914 5913 5911 5910 5909 5908 5906 5904 5901 5898 5895 5893 5891 5890 5890 5889 5887 5885 5884 5882 5880 5878 5876 5875 5873 5872 5870 5869 5868 5867 5866 5865 5865 5864 5863 5862 5861 5860 5859 5859 5858 5857 5856 5855
5920 5922 5924 5926 5928 5930 5931 5931 5933 5933 5935 5936 5937 5938 5938 5938 5938 5938 5937 5937 5936 5935 5934 5934 5933 5933 5934 5933 5932 5929 5927 5925 5924 5923 5923 5922 5922 5922 5921 5920 5918 5916 5914 5913 5912 5910 5909 5908 5906 5903 5900 5897 5893 5891 5890 5889 5889 5887 5886 5884 5882 5880 5879 5877 5875 5874 5872 5871 5869 5868 5867 5866 5865 5864 5864 5863 5862 5860 5859 5858 5857 5856 5855 5853 5852 5851
5917 5919 5921 5923 5925 5928 5929 5930 5931 5931 5932 5934 5934 5935 5936 5937 5937 5937 5937 5936 5936 5935 5934 5933 5932 5932 5932 5932 5930 5927 5925 5924 5924 5923 5923 5921 5920 5920 5919 5919 5917 5915 5913 5912 5911 5909 5908 5906 5903 5900 5898 5895 5893 5891 5890 5889 5887 5886 5884 5882 5880 5879 5877 5875 5874 5872 5871 5869 5868 5867 5866 5865 5864 5863 5863 5862 5861 5859 5858 5856 5855 5853 5851 5850 5848 5848
5914 5916 5918 5919 5922 5925 5927 5927 5928 5929 5930 5931 5931 5932 5933 5934 5935 5935 5935 5934 5934 5934 5934 5933 5931 5930 5930 5930 5928 5926 5924 5924 5924 5924 5923 5920 5919 5918 5918 5917 5915 5913 5912 5911 5909 5907 5905 5904 5901 5898 5896 5894 5892 5891 5890 5888 5886 5885 5883 5881 5879 5877 5875 5873 5871 5870 5869 5867 5866 5865 5864 5864 5862 5862 5861 5861 5859 5858 5856 5854 5852 5850 5848 5846 5845 5845
5912 5913 5914 5916 5920 5922 5923 5923 5925 5926 5926 5928 5929 5930 5930 5931 5932 5933 5933 5933 5933 5934 5934 5932 5931 5930 5929 5928 5927 5926 5924 5924 5924 5923 5921 5919 5918 5917 5916 5915 5913 5911 5910 5910 5908 5905 5903 5901 5899 5897 5895 5893 5891 5890 5889 5887 5885 5883 5881 5879 5877 5875 5873 5871 5869 5868 5867 5865 5864 5863 5862 5862 5861 5860 5859 5858 5857 5855 5853 5851 5849 5847 5845 5844 5843 5842
5909 5911 5912 5914 5918 5920 5921 5921 5922 5923 5924 5926 5928 5929 5928 5929 5930 5930 5931 5932 5933 5933 5932 5931 5930 5929 5928 5927 5927 5926 5924 5924 5924 5922 5920 5919 5918 5917 5915 5913 5911 5909 5909 5908 5906 5903 5901 5899 5898 5896 5894 5892 5890 5888 5887 5885 5883 5881 5878 5876 5874 5872 5870 5869 5868 5866 5865 5863 5862 5861 5860 5859 5858 5857 5856 5855 5853 5852 5850 5848 5846 5844 5843 5841 5840 5839
5907 5908 5910 5912 5915 5917 5918 5919 5921 5923 5923 5924 5926 5927 5927 5928 5928 5929 5930 5931 5931 5930 5930 5929 5928 5927 5926 5926 5927 5926 5924 5923 5923 5921 5920 5919 5917 5916 5913 5911 5910 5908 5907 5906 5904 5902 5899 5897 5895 5894 5892 5890 5888 5887 5885 5883 5881 5878 5875 5873 5871 5869 5868 5867 5866 5865 5863 5862 5861 5859 5858 5856 5855 5854 5853 5852 5851 5850 5848 5845 5843 5842 5841 5839 5838 5836
5905 5906 5908 5910 5913 5915 5917 5919 5921 5923 5923 5923 5925 5926 5925 5926 5927 5928 5928 5928 5928 5928 5928 5927 5926 5925 5925 5925 5926 5925 5923 5922 5921 5920 5919 5918 5916 5914 5912 5910 5909 5907 5906 5904 5902 5899 5897 5894 5893 5891 5889 5887 5886 5884 5883 5881 5879 5876 5873 5870 5868 5867 5865 5864 5864 5863 5861 5860 5858 5857 5855 5853 5852 5850 5849 5848 5848 5846 5845 5842 5840 5839 5838 5836 5834 5833
5903 5905 5907 5909 5911 5913 5916 5919 5921 5922 5922 5923 5923 5923 5923 5925 5926 5926 5926 5926 5926 5926 5925 5923 5923 5923 5923 5924 5924 5923 5921 5920 5919 5918 5917 5916 5914 5912 5910 5909 5907 5906 5904 5902 5899 5897 5894 5892 5890 5888 5886 5885 5883 5882 5881 5879 5877 5874 5871 5868 5866 5865 5863 5862 5861 5860 5859 5857 5856 5854 5852 5850 5848 5847 5846 5845 5845 5843 5842 5840 5837 5836 5834 5832 5830 5829
5902 5904 5906 5907 5908 5912 5915 5918 5919 5920 5921 5922 5922 5921 5922 5923 5924 5923 5923 5923 5923 5923 5922 5920 5920 5921 5921 5921 5921 5920 5919 5918 5918 5917 5915 5914 5912 5910 5909 5907 5906 5904 5902 5900 5898 5895 5893 5891 5888 5886 5884 5883 5881 5880 5879 5877 5874 5871 5869 5866 5864 5863 5861 5860 5859 5858 5856 5855 5853 5851 5849 5847 5845 5844 5843 5842 5841 5840 5838 5836 5834 5832 5830 5828 5826 5825
5900 5902 5903 5905 5907 5910 5913 5915 5915 5917 5918 5919 5920 5920 5920 5921 5921 5920 5921 5921 5921 5921 5920 5918 5917 5918 5918 5918 5918 5918 5917 5917 5916 5915 5913 5911 5910 5908 5907 5905 5903 5901 5899 5897 5895 5893 5892 5889 5886 5884 5882 5881 5879 5878 5876 5874 5871 5869 5866 5864 5862 5860 5859 5858 5857 5855 5853 5852 5850 5848 5846 5844 5842 5840 5839 5839 5837 5835 5833 5832 5830 5828 5826 5824 5822 5821
5899 5901 5902 5904 5906 5908 5910 5911 5912 5913 5915 5917 5919 5919 5919 5919 5919 5919 5919 5920 5920 5920 5919 5916 5915 5914 5915 5916 5916 5916 5916 5915 5914 5913 5911 5909 5908 5906 5904 5903 5900 5898 5896 5894 5892 5891 5889 5886 5884 5882 5880 5878 5876 5876 5874 5872 5869 5866 5864 5862 5860 5858 5856 5855 5854 5853 5851 5849 5847 5845 5843 5840 5838 5836 5834 5834 5833 5830 5828 5826 5825 5823 5821 5820 5818 5817
5898 5900 5902 5903 5905 5907 5908 5909 5910 5911 5912 5914 5916 5917 5917 5918 5918 5918 5918 5918 5918 5918 5917 5915 5913 5911 5912 5914 5914 5914 5914 5913 5912 5910 5908 5907 5906 5904 5902 5900 5898 5895 5893 5891 5890 5888 5886 5883 5881 5879 5877 5875 5874 5873 5872 5869 5866 5864 5862 5859 5857 5855 5854 5852 5851 5850 5848 5846 5844 5841 5839 5837 5834 5832 5830 5829 5827 5825 5823 5821 5819 5818 5816 5815 5814 5813
5897 5899 5901 5903 5904 5905 5907 5908 5909 5909 5910 5911 5913 5914 5915 5916 5916 5917 5916 5916 5917 5917 5915 5913 5911 5910 5911 5912 5913 5912 5912 5911 5910 5908 5906 5905 5904 5901 5899 5897 5894 5892 5891 5889 5887 5885 5883 5880 5879 5876 5873 5872 5871 5870 5868 5866 5864 5862 5859 5856 5854 5852 5851 5850 5848 5847 5845 5842 5840 5838 5836 5833 5830 5829 5827 5824 5823 5821 5818 5816 5814 5812 5811 5810 5809 5808
5896 5897 5899 5901 5902 5904 5905 5905 5905 5905 5906 5908 5910 5912 5914 5914 5914 5914 5914 5915 5914 5914 5913 5911 5910 5910 5910 5911 5910 5910 5909 5908 5907 5906 5904 5903 5901 5899 5896 5894 5892 5890 5888 5886 5884 5883 5881 5878 5876 5873 5871 5869 5868 5867 5865 5863 5861 5858 5855 5853 5851 5849 5848 5847 5845 5843 5841 5839 5837 5834 5831 5829 5826 5825 5823 5821 5818 5816 5814 5811 5809 5806 5805 5804 5804 5802
5895 5896 5897 5899 5901 5903 5904 5904 5904 5903 5904 5907 5908 5910 5912 5912 5911 5912 5912 5912 5912 5911 5911 5910 5909 5909 5909 5909 5909 5908 5906 5905 5904 5903 5902 5900 5898 5897 5895 5892 5890 5888 5886 5884 5882 5881 5878 5876 5873 5871 5869 5866 5865 5864 5863 5860 5857 5854 5852 5850 5848 5847 5846 5844 5843 5841 5838 5836 5833 5830 5828 5825 5822 5821 5819 5817 5814 5811 5809 5806 5804 5801 5799 5799 5798 5797
5894 5896 5897 5898 5900 5901 5903 5905 5905 5904 5905 5906 5906 5908 5910 5909 5908 5909 5909 5909 5909 5909 5908 5908 5907 5907 5906 5906 5906 5905 5904 5903 5902 5901 5899 5898 5897 5895 5893 5890 5887 5885 5884 5882 5880 5878 5876 5874 5872 5869 5866 5864 5862 5861 5860 5857 5853 5851 5849 5848 5846 5845 5843 5842 5840 5838 5835 5832 5829 5827 5824 5821 5818 5817 5815 5813 5809 5807 5804 5802 5799 5797 5794 5794 5793 5792
5894 5895 5895 5897 5898 5900 5903 5905 5905 5905 5904 5903 5903 5905 5906 5905 5905 5907 5907 5907 5907 5906 5905 5905 5905 5905 5904 5903 5903 5902 5902 5901 5900 5899 5897 5896 5894 5892 5890 5887 5885 5883 5881 5880 5878 5877 5874 5872 5869 5866 5863 5861 5859 5858 5856 5853 5850 5848 5846 5845 5843 5842 5840 5838 5836 5834 5831 5828 5826 5823 5820 5816 5814 5812 5811 5809 5806 5802 5800 5797 5795 5792 5790 5789 5789 5787
5894 5894 5893 5894 5896 5899 5901 5902 5903 5903 5902 5900 5901 5903 5903 5903 5904 5904 5904 5904 5904 5904 5903 5904 5903 5903 5902 5901 5900 5899 5899 5898 5897 5896 5895 5893 5892 5890 5887 5885 5882 5880 5879 5877 5875 5874 5872 5869 5866 5863 5860 5858 5856 5854 5852 5850 5847 5845 5843 5841 5840 5838 5836 5834 5831 5829 5827 5824 5821 5818 5815 5811 5809 5808 5807 5805 5803 5799 5796 5793 5790 5787 5785 5784 5783 5783
5892 5892 5892 5892 5894 5896 5897 5898 5899 5900 5898 5898 5899 5900 5901 5902 5902 5902 5902 5903 5902 5902 5901 5901 5901 5900 5899 5898 5897 5897 5896 5895 5894 5893 5893 5891 5890 5888 5885 5882 5880 5878 5876 5874 5872 5871 5868 5865 5862 5859 5856 5854 5852 5850 5848 5846 5844 5842 5840 5839 5836 5834 5832 5829 5826 5823 5821 5819 5816 5814 5810 5807 5805 5803 5802 5800 5798 5795 5792 5789 5786 5782 5780 5777 5776 5777
5890 5891 5891 5891 5893 5893 5893 5894 5896 5895 5894 5895 5896 5897 5898 5899 5899 5900 5901 5901 5901 5900 5900 5899 5898 5897 5896 5895 5895 5894 5894 5893 5893 5891 5890 5889 5887 5885 5882 5879 5877 5875 5873 5871 5868 5866 5864 5861 5858 5855 5852 5851 5849 5847 5845 5843 5841 5839 5837 5835 5833 5830 5827 5824 5821 5818 5815 5813 5812 5810 5807 5803 5801 5799 5797 5795 5792 5790 5787 5784 5781 5778 5775 5773 5770 5770
5888 5889 5889 5890 5892 5892 5891 5892 5892 5891 5891 5893 5894 5895 5896 5897 5897 5898 5899 5900 5900 5899 5898 5897 5895 5895 5894 5893 5893 5893 5893 5892 5891 5889 5888 5886 5884 5882 5879 5876 5874 5872 5870 5867 5865 5863 5860 5857 5854 5851 5849 5848 5846 5844 5843 5841 5838 5836 5834 5831 5828 5825 5822 5819 5816 5814 5812 5810 5808 5806 5803 5800 5797 5794 5792 5790 5787 5785 5782 5780 5777 5774 5772 5769 5767 5765
5886 5887 5887 5888 5891 5893 5890 5889 5890 5890 5891 5892 5893 5895 5896 5896 5897 5898 5898 5898 5898 5897 5896 5895 5894 5893 5892 5892 5892 5892 5892 5890 5889 5887 5885 5883 5881 5878 5876 5874 5871 5869 5867 5865 5862 5860 5858 5855 5853 5850 5848 5846 5844 5842 5840 5838 5835 5832 5830 5827 5824 5820 5818 5815 5813 5811 5809 5807 5805 5802 5799 5796 5793 5790 5788 5785 5783 5780 5778 5775 5773 5771 5768 5766 5764 5761
5884 5885 5885 5886 5890 5892 5888 5887 5889 5890 5890 5891 5892 5893 5894 5894 5895 5896 5896 5896 5895 5894 5893 5892 5892 5891 5890 5889 5890 5890 5889 5887 5886 5884 5883 5881 5878 5875 5873 5871 5869 5866 5864 5862 5860 5858 5856 5854 5852 5849 5847 5844 5842 5840 5837 5835 5832 5829 5826 5823 5820 5817 5815 5813 5810 5807 5805 5803 5801 5798 5796 5792 5789 5786 5784 5781 5779 5777 5774 5772 5770 5767 5765 5763 5761 5759
5883 5883 5883 5884 5888 5891 5887 5885 5887 5888 5888 5890 5890 5891 5891 5891 5892 5892 5893 5893 5892 5891 5890 5889 5889 5888 5887 5887 5887 5886 5885 5884 5882 5881 5879 5877 5874 5872 5870 5868 5866 5864 5862 5860 5858 5856 5854 5852 5849 5847 5845 5843 5840 5837 5834 5831 5828 5826 5823 5820 5817 5815 5813 5810 5807 5804 5801 5799 5797 5794 5792 5789 5786 5783 5781 5778 5776 5773 5771 5769 5767 5764 5762 5760 5758 5756
5881 5882 5882 5883 5886 5889 5887 5885 5885 5886 5887 5888 5888 5888 5888 5889 5890 5891 5891 5891 5890 5890 5889 5887 5886 5886 5885 5884 5884 5883 5882 5880 5879 5877 5875 5873 5871 5869 5867 5865 5864 5862 5859 5857 5855 5853 5851 5848 5846 5845 5843 5840 5838 5835 5832 5829 5826 5823 5820 5817 5815 5812 5809 5806 5804 5801 5798 5796 5793 5791 5788 5786 5783 5780 5777 5775 5772 5770 5768 5766 5764 5762 5759 5757 5755 5753
5879 5881 5881 5881 5883 5886 5885 5884 5884 5885 5886 5887 5886 5886 5887 5888 5889 5889 5889 5889 5888 5887 5886 5885 5884 5883 5882 5882 5881 5880 5878 5877 5875 5873 5871 5869 5867 5866 5864 5863 5861 5859 5857 5855 5853 5850 5848 5846 5844 5843 5840 5838 5835 5832 5829 5826 5823 5820 5817 5814 5812 5809 5806 5804 5801 5798 5795 5792 5790 5787 5785 5782 5780 5777 5775 5772 5770 5768 5765 5763 5761 5759 5757 5755 5753 5751
5876 5878 5880 5880 5881 5882 5882 5882 5883 5884 5884 5884 5885 5886 5886 5887 5887 5887 5887 5887 5886 5884 5883 5883 5882 5881 5880 5879 5879 5877 5876 5874 5872 5870 5869 5867 5865 5863 5861 5860 5859 5857 5854 5852 5850 5848 5847 5845 5843 5841 5838 5835 5832 5829 5826 5823 5820 5817 5814 5811 5808 5806 5803 5801 5798 5795 5792 5789 5787 5785 5782 5780 5777 5775 5772 5770 5767 5765 5763 5761 5759 5757 5755 5753 5751 5749
5874 5876 5878 5879 5880 5880 5880 5881 5882 5882 5882 5883 5884 5885 5885 5885 5886 5886 5886 5885 5883 5882 5881 5880 5880 5879 5879 5878 5876 5875 5873 5871 5869 5868 5866 5864 5863 5861 5860 5858 5856 5854 5852 5850 5848 5846 5845 5843 5840 5838 5835 5832 5829 5826 5823 5820 5817 5814 5811 5808 5806 5803 5801 5798 5795 5792 5790 5787 5785 5783 5780 5778 5775 5773 5771 5768 5766 5763 5761 5759 5757 5755 5753 5751 5749 5747
5872 5873 5875 5878 5879 5879 5880 5881 5881 5880 5881 5881 5882 5883 5883 5884 5884 5885 5884 5883 5882 5881 5880 5879 5878 5877 5877 5876 5874 5872 5871 5869 5867 5866 5864 5862 5861 5860 5858 5856 5854 5852 5850 5848 5846 5844 5842 5840 5837 5834 5832 5829 5826 5823 5820 5817 5814 5811 5808 5805 5803 5800 5798 5795 5792 5790 5788 5786 5783 5781 5778 5776 5774 5771 5769 5766 5764 5761 5759 5757 5755 5753 5751 5748 5747 5745
5871 5871 5872 5875 5876 5878 5879 5880 5879 5879 5879 5879 5880 5881 5882 5882 5883 5883 5882 5882 5881 5880 5879 5877 5876 5875 5874 5873 5872 5870 5869 5867 5866 5864 5862 5861 5859 5858 5856 5854 5852 5850 5848 5846 5844 5842 5839 5837 5834 5832 5829 5826 5823 5820 5817 5814 5811 5808 5805 5803 5800 5798 5795 5793 5790 5789 5786 5784 5782 5779 5777 5774 5772 5769 5767 5765 5762 5760 5757 5755 5753 5751 5749 5747 5745 5743
5871 5870 5870 5872 5874 5875 5876 5877 5877 5878 5878 5878 5878 5879 5880 5881 5880 5880 5880 5879 5878 5878 5876 5875 5874 5873 5872 5871 5869 5868 5866 5865 5863 5862 5860 5858 5857 5855 5853 5851 5849 5847 5845 5843 5841 5839 5836 5834 5831 5829 5826 5823 5820 5817 5814 5811 5808 5805 5803 5800 5797 5795 5793 5791 5789 5787 5785 5782 5780 5777 5775 5773 5770 5768 5765 5763 5761 5758 5756 5754 5752 5749 5747 5745 5743 5742
5869 5869 5870 5871 5872 5872 5874 5875 5876 5876 5877 5877 5877 5877 5878 5878 5878 5878 5877 5877 5876 5876 5874 5873 5872 5871 5870 5868 5867 5865 5864 5863 5861 5860 5858 5856 5855 5853 5851 5849 5847 5845 5843 5841 5839 5836 5834 5831 5828 5826 5823 5820 5817 5813 5810 5808 5805 5803 5800 5797 5795 5794 5792 5790 5788 5786 5783 5781 5779 5776 5774 5771 5769 5766 5764 5762 5760 5757 5755 5753 5750 5748 5746 5744 5742 5740
5868 5869 5869 5870 5870 5871 5872 5873 5874 5875 5875 5875 5875 5875 5875 5876 5876 5875 5875 5875 5874 5874 5873 5871 5870 5869 5867 5866 5864 5863 5862 5861 5859 5858 5856 5854 5852 5851 5849 5848 5846 5843 5841 5839 5836 5833 5831 5828 5825 5823 5819 5816 5813 5810 5807 5805 5802 5800 5797 5796 5794 5793 5791 5789 5787 5784 5782 5780 5778 5776 5773 5771 5768 5766 5764 5761 5759 5757 5754 5752 5750 5748 5746 5744 5741 5739
5867 5867 5868 5868 5869 5869 5870 5872 5873 5874 5874 5874 5873 5872 5873 5873 5873 5873 5873 5872 5872 5872 5871 5869 5868 5867 5865 5863 5862 5861 5860 5859 5857 5856 5854 5852 5851 5849 5848 5846 5844 5841 5838 5836 5833 5830 5828 5825 5822 5819 5816 5813 5810 5807 5805 5802 5800 5798 5796 5795 5794 5792 5790 5788 5786 5784 5782 5779 5777 5775 5773 5770 5768 5766 5763 5761 5759 5756 5754 5752 5750 5747 5745 5743 5740 5738
5865 5866 5867 5867 5867 5868 5869 5870 5871 5872 5873 5873 5872 5871 5871 5871 5871 5871 5871 5871 5870 5869 5868 5867 5866 5864 5863 5861 5860 5859 5858 5856 5855 5853 5852 5850 5849 5847 5845 5843 5841 5838 5835 5832 5830 5827 5825 5822 5819 5816 5813 5810 5807 5805 5803 5801 5799 5797 5796 5795 5793 5791 5789 5787 5785 5783 5781 5779 5776 5774 5772 5770 5768 5765 5763 5761 5759 5756 5754 5752 5749 5747 5744 5742 5740 5737
5863 5864 5865 5865 5866 5867 5868 5868 5869 5870 5871 5872 5871 5870 5870 5870 5870 5870 5870 5869 5868 5867 5866 5865 5863 5862 5860 5859 5858 5857 5856 5854 5853 5851 5849 5848 5846 5845 5843 5840 5838 5835 5833 5831 5828 5826 5822 5819 5816 5813 5811 5808 5805 5803 5801 5800 5798 5797 5796 5794 5792 5790 5788 5787 5785 5783 5781 5778 5776 5774 5772 5770 5767 5765 5763 5761 5759 5756 5754 5751 5749 5746 5744 5742 5739 5737
5861 5862 5863 5864 5864 5865 5866 5867 5868 5868 5869 5869 5869 5869 5869 5869 5869 5869 5868 5867 5866 5865 5864 5862 5861 5859 5858 5857 5856 5855 5853 5851 5849 5848 5846 5845 5844 5843 5841 5839 5836 5834 5832 5830 5827 5824 5821 5817 5814 5811 5808 5805 5803 5802 5800 5799 5798 5797 5795 5793 5791 5790 5788 5787 5785 5782 5780 5778 5776 5773 5772 5770 5767 5765 5763 5761 5759 5756 5753 5751 5748 5746 5744 5741 5739 5736
5859 5860 5861 5862 5863 5864 5865 5865 5866 5867 5867 5867 5867 5867 5867 5867 5867 5867 5866 5865 5864 5863 5862 5860 5858 5857 5855 5855 5854 5852 5851 5849 5847 5845 5844 5843 5842 5840 5838 5837 5835 5832 5830 5827 5825 5822 5818 5815 5812 5809 5807 5805 5803 5801 5800 5799 5798 5796 5794 5793 5791 5789 5788 5786 5784 5782 5779 5777 5775 5774 5772 5770 5768 5766 5763 5761 5758 5756 5753 5751 5748 5746 5743 5741 5738 5736
5857 5858 5859 5860 5860 5861 5862 5863 5863 5865 5865 5865 5865 5865 5865 5865 5865 5864 5863 5862 5861 5860 5859 5857 5856 5854 5854 5853 5852 5850 5848 5846 5844 5843 5842 5841 5839 5838 5836 5834 5832 5830 5827 5825 5822 5819 5816 5814 5811 5808 5806 5804 5803 5801 5800 5799 5798 5796 5794 5793 5791 5789 5788 5786 5783 5781 5779 5777 5776 5774 5772 5770 5767 5765 5763 5761 5758 5755 5753 5750 5748 5746 5743 5741 5738 5736
5856 5857 5857 5858 5858 5859 5860 5860 5861 5862 5863 5863 5862 5862 5862 5862 5862 5862 5861 5860 5859 5858 5856 5855 5853 5852 5852 5850 5849 5847 5845 5843 5842 5841 5840 5839 5837 5835 5833 5831 5829 5826 5824 5821 5819 5816 5814 5812 5809 5807 5806 5804 5803 5801 5800 5799 5797 5796 5794 5793 5791 5789 5788 5785 5783 5781 5779 5778 5776 5774 5772 5770 5767 5765 5763 5761 5758 5755 5753 5750 5748 5745 5743 5740 5738 5735
5854 5855 5855 5856 5856 5857 5858 5858 5859 5860 5860 5860 5859 5859 5859 5859 5859 5858 5858 5857 5856 5855 5854 5852 5851 5850 5849 5848 5847 5845 5843 5841 5840 5839 5838 5836 5835 5833 5830 5828 5826 5823 5820 5818 5816 5814 5811 5809 5807 5806 5805 5804 5802 5801 5800 5799 5797 5796 5794 5793 5791 5789 5787 5785 5783 5781 5780 5778 5776 5774 5772 5770 5768 5766 5763 5760 5758 5755 5753 5750 5747 5745 5742 5740 5737 5735
5851 5852 5853 5854 5855 5855 5856 5856 5856 5857 5857 5857 5857 5856 5856 5856 5855 5855 5854 5854 5854 5853 5851 5850 5849 5848 5847 5846 5845 5843 5842 5840 5839 5838 5836 5834 5832 5830 5828 5826 5824 5821 5818 5816 5814 5812 5810 5808 5807 5806 5805 5803 5802 5801 5800 5799 5797 5795 5794 5792 5790 5789 5787 5785 5783 5782 5780 5778 5776 5774 5772 5770 5768 5765 5763 5760 5757 5755 5752 5750 5747 5744 5742 5739 5737 5734
5849 5849 5850 5852 5852 5853 5853 5853 5853 5854 5854 5855 5854 5854 5854 5853 5852 5852 5852 5851 5851 5850 5848 5847 5847 5846 5845 5844 5843 5842 5840 5839 5837 5836 5834 5832 5830 5828 5827 5825 5822 5819 5817 5815 5813 5812 5810 5809 5808 5806 5805 5803 5802 5800 5799 5798 5796 5795 5793 5792 5790 5788 5786 5785 5783 5781 5779 5778 5776 5774 5772 5770 5767 5765 5762 5759 5756 5754 5751 5749 5747 5744 5741 5738 5736 5734